Regional Weather Roundup
Issued by NWS Albany, NY

Home | Current Version | Previous Version | Graphics & Text | Print | Product List | Glossary Off
Versions: 1 2 3 4 5 6 7 8 9 10 11 12 13 14 15 16 17 18 19 20 21 22 23 24 25 26 27 28

000
ASUS41 KALY 220410
RWRALY

NEW YORK STATE HOURLY WEATHER ROUNDUP
NATIONAL WEATHER SERVICE ALBANY NY
1100 PM EST WED FEB 21 2018

NOTE: "FAIR" INDICATES FEW OR NO CLOUDS BELOW 12,000 FEET WITH NO
SIGNIFICANT WEATHER AND/OR NO OBSTRUCTIONS TO VISIBILITY.

NYZ032-033-038>043-046>054-057>066-NYZ062>081-082-084-220500-
EAST


CITY           SKY/WX    TMP DP  RH WIND       PRES   REMARKS
ALBANY         MOCLDY    40  33  76 NW8       30.50R WCI  34
GLENS FALLS    CLOUDY    42  27  55 N10       30.49R
POUGHKEEPSIE   CLOUDY    53  34  48 N13       30.42R
NEWBURGH       CLOUDY    55  46  71 VRB5      30.42R
MONTGOMERY     CLOUDY    54  37  52 NW5       30.41R
WHITE PLAINS   CLOUDY    57  44  62 N13       30.38R
ISLIP          LGT RAIN  54  51  90 N9        30.37R
NEW YORK CITY  CLOUDY    59  49  69 N8        30.37R
CENTRAL PARK   CLOUDY    60  48  64 NW5       30.41R
$$

NYZ005>009-017-018-044>046-055-056-220500-
CENTRAL


CITY           SKY/WX    TMP DP  RH WIND       PRES   REMARKS
FULTON         FAIR      33  32  96 W6        30.59R WCI  28
SYRACUSE       MOCLDY    34  29  82 W10       30.58S WCI  26
ROME           CLOUDY    35  32  88 W9        30.59R WCI  28
ELMIRA         MOCLDY    39  30  70 NE7       30.55R WCI  34
BINGHAMTON     CLOUDY    34  29  82 N12       30.51R WCI  25
MONTICELLO     MOCLDY    41  33  73 NW9       30.46R
$$

NYZ026>034-041>043-087-220500-
NORTH


CITY           SKY/WX    TMP DP  RH WIND       PRES   REMARKS
WATERTOWN      CLOUDY    35  33  92 CALM      30.59R
FORT DRUM      NOT AVBL
OGDENSBURG     MOCLDY    30  25  80 CALM      30.60R
MASSENA        FAIR      32  23  69 NW3       30.61R
SARANAC LAKE   FAIR      29  26  89 NW3       30.49R
PLATTSBURGH    FAIR      34  23  64 NW10      30.55  WCI  26
$$

NYZ001>004-010>016-019>021-085-220500-
WEST


CITY           SKY/WX    TMP DP  RH WIND       PRES   REMARKS
NIAGARA FALLS  FAIR      35  26  69 N6        30.61R WCI  30
BUFFALO        CLOUDY    34  30  85 N5        30.60R WCI  30
DUNKIRK        MOCLDY    35  31  85 CALM      30.60F
JAMESTOWN        N/A    N/A N/A N/A MISG        N/A
WELLSVILLE     CLOUDY    35  29  78 N7        30.52S WCI  29
ROCHESTER      MOCLDY    34  26  72 N8        30.60R WCI  27
PENN YAN       CLOUDY    36  23  59 VRB7      30.57R WCI  30
$$

             KEY
       WCI = WIND CHILL INDEX
       VSB = VISIBILITY
       HX  = HEAT INDEX
$$




USA.gov is the U.S. government's official web portal to all federal, state and local government web resources and services.